• In Czech Republic
  • List of Countries
  • For 7 days
  • Water Temperature
  • Satellite Maps
  • Weather Map
  • Weather Widgets
  • user-avatar
    Login

    Hourly Weather La Massana

    Today, 15 October, Monday

    Time Temperature Precipitation Wind Pressure Humidity
    00:00 +5°C° 0 mm 3 mps 605 mmHg 95%
    01:00 +4°C° 7.8 mm 3 mps 604 mmHg 95%
    02:00 +4°C° 7.8 mm 3 mps 604 mmHg 96%
    03:00 +4°C° 7.8 mm 3 mps 603 mmHg 96%
    04:00 +5°C° 3.9 mm 2 mps 603 mmHg 96%
    05:00 +5°C° 3.9 mm 2 mps 603 mmHg 95%
    06:00 +6°C° 0 mm 1 mps 604 mmHg 96%
    07:00 +6°C° 0.2 mm 1 mps 604 mmHg 93%
    08:00 +7°C° 0.2 mm 1 mps 605 mmHg 90%
    09:00 +7°C° 0.2 mm 1 mps 605 mmHg 87%
    10:00 +8°C° 0.1 mm 1 mps 605 mmHg 85%
    11:00 +8°C° 0.1 mm 1 mps 606 mmHg 83%
    12:00 +8°C° 0.1 mm 1 mps 606 mmHg 82%
    13:00 +8°C° 0.3 mm 1 mps 606 mmHg 83%
    14:00 +8°C° 0.3 mm 1 mps 606 mmHg 84%
    15:00 +8°C° 0.3 mm 1 mps 606 mmHg 86%
    16:00 +7°C° 0.2 mm 1 mps 606 mmHg 88%
    17:00 +7°C° 0.2 mm 1 mps 606 mmHg 91%
    18:00 +5°C° 0.2 mm 0 mps 606 mmHg 94%
    19:00 +5°C° 0.2 mm 0 mps 607 mmHg 94%
    20:00 +6°C° 0.2 mm 1 mps 607 mmHg 94%
    21:00 +6°C° 0.2 mm 1 mps 607 mmHg 94%
    22:00 +6°C° 0.1 mm 1 mps 607 mmHg 94%
    23:00 +6°C° 0.1 mm 1 mps 608 mmHg 94%

    Tomorrow, 16 October, Tuesday

    Time Temperature Precipitation Wind Pressure Humidity
    00:00 +5°C° 0.1 mm 1 mps 608 mmHg 95%
    01:00 +5°C° 0 mm 1 mps 608 mmHg 94%
    02:00 +5°C° 0 mm 1 mps 608 mmHg 94%
    03:00 +5°C° 0 mm 1 mps 608 mmHg 93%
    04:00 +5°C° 0 mm 1 mps 608 mmHg 92%
    05:00 +5°C° 0 mm 1 mps 608 mmHg 92%
    06:00 +4°C° 0 mm 1 mps 608 mmHg 91%
    07:00 +6°C° 0 mm 1 mps 609 mmHg 85%
    08:00 +8°C° 0 mm 1 mps 610 mmHg 80%
    09:00 +9°C° 0 mm 1 mps 611 mmHg 74%
    10:00 +10°C° 0 mm 1 mps 612 mmHg 71%
    11:00 +11°C° 0 mm 1 mps 612 mmHg 67%
    12:00 +12°C° 0 mm 1 mps 613 mmHg 64%
    13:00 +11°C° 0.1 mm 1 mps 613 mmHg 67%
    14:00 +11°C° 0.1 mm 1 mps 612 mmHg 70%
    15:00 +10°C° 0.1 mm 1 mps 612 mmHg 73%
    16:00 +9°C° 0.2 mm 1 mps 612 mmHg 79%
    17:00 +8°C° 0.2 mm 1 mps 612 mmHg 84%
    18:00 +7°C° 0.2 mm 1 mps 611 mmHg 90%
    19:00 +7°C° 0.1 mm 1 mps 612 mmHg 91%
    20:00 +7°C° 0.1 mm 1 mps 612 mmHg 92%
    21:00 +6°C° 0.1 mm 1 mps 612 mmHg 92%
    22:00 +6°C° 0 mm 1 mps 612 mmHg 92%
    23:00 +6°C° 0 mm 1 mps 611 mmHg 92%

    Day after tomorrow, 17 October, Wednesday

    Time Temperature Precipitation Wind Pressure Humidity
    00:00 +5°C° 0 mm 1 mps 611 mmHg 92%
    01:00 +5°C° 0 mm 1 mps 611 mmHg 91%
    02:00 +5°C° 0 mm 1 mps 610 mmHg 90%
    03:00 +4°C° 0 mm 1 mps 610 mmHg 89%
    04:00 +4°C° 0 mm 1 mps 610 mmHg 88%
    05:00 +4°C° 0 mm 1 mps 610 mmHg 87%
    06:00 +4°C° 0 mm 1 mps 610 mmHg 86%
    07:00 +6°C° 0 mm 1 mps 611 mmHg 81%
    08:00 +8°C° 0 mm 1 mps 612 mmHg 75%
    09:00 +10°C° 0 mm 1 mps 613 mmHg 70%
    10:00 +10°C° 0 mm 1 mps 613 mmHg 67%
    11:00 +11°C° 0 mm 1 mps 613 mmHg 64%
    12:00 +12°C° 0 mm 2 mps 613 mmHg 61%
    13:00 +12°C° 0 mm 2 mps 612 mmHg 63%
    14:00 +12°C° 0 mm 2 mps 612 mmHg 64%
    15:00 +12°C° 0 mm 2 mps 611 mmHg 65%
    16:00 +10°C° 0.1 mm 1 mps 611 mmHg 73%
    17:00 +8°C° 0.1 mm 1 mps 610 mmHg 81%
    18:00 +6°C° 0.1 mm 0 mps 609 mmHg 88%
    19:00 +6°C° 0 mm 0 mps 609 mmHg 89%
    20:00 +6°C° 0 mm 1 mps 609 mmHg 89%
    21:00 +6°C° 0 mm 1 mps 609 mmHg 90%
    22:00 +6°C° 0.2 mm 1 mps 609 mmHg 90%
    23:00 +6°C° 0.2 mm 1 mps 609 mmHg 90%

    18 October, Thursday

    Time Temperature Precipitation Wind Pressure Humidity
    00:00 +6°C° 0.2 mm 1 mps 609 mmHg 91%
    01:00 +6°C° 0.3 mm 1 mps 609 mmHg 91%
    02:00 +6°C° 0.3 mm 1 mps 608 mmHg 91%
    03:00 +6°C° 0.3 mm 1 mps 608 mmHg 91%
    04:00 +6°C° 0.9 mm 1 mps 608 mmHg 91%
    05:00 +6°C° 0.9 mm 1 mps 608 mmHg 91%
    06:00 +6°C° 0.9 mm 1 mps 608 mmHg 91%
    07:00 +7°C° 1.3 mm 1 mps 609 mmHg 91%
    08:00 +7°C° 1.3 mm 1 mps 609 mmHg 90%
    09:00 +7°C° 1.3 mm 1 mps 609 mmHg 89%
    10:00 +7°C° 1 mm 1 mps 609 mmHg 90%
    11:00 +8°C° 1 mm 1 mps 609 mmHg 90%
    12:00 +8°C° 1 mm 1 mps 609 mmHg 90%
    13:00 +7°C° 0.5 mm 2 mps 609 mmHg 89%
    14:00 +7°C° 0.5 mm 2 mps 609 mmHg 89%
    15:00 +8°C° 0.5 mm 2 mps 609 mmHg 88%
    16:00 +7°C° 0.1 mm 2 mps 609 mmHg 90%
    17:00 +7°C° 0.1 mm 2 mps 609 mmHg 92%
    18:00 +6°C° 0.1 mm 2 mps 609 mmHg 94%
    19:00 +6°C° 0.1 mm 2 mps 610 mmHg 94%
    20:00 +6°C° 0.1 mm 2 mps 610 mmHg 93%
    21:00 +6°C° 0.1 mm 2 mps 610 mmHg 93%
    22:00 +6°C° 0 mm 2 mps 610 mmHg 93%
    23:00 +6°C° 0 mm 2 mps 610 mmHg 92%

    19 October, Friday

    Time Temperature Precipitation Wind Pressure Humidity
    00:00 +6°C° 0 mm 2 mps 610 mmHg 92%
    01:00 +6°C° 0 mm 2 mps 610 mmHg 92%
    02:00 +5°C° 0 mm 2 mps 610 mmHg 92%
    03:00 +5°C° 0 mm 2 mps 610 mmHg 92%
    04:00 +5°C° 0 mm 2 mps 610 mmHg 91%
    05:00 +5°C° 0 mm 2 mps 610 mmHg 91%
    06:00 +5°C° 0 mm 2 mps 610 mmHg 91%
    07:00 +6°C° 0 mm 2 mps 611 mmHg 86%
    08:00 +8°C° 0 mm 2 mps 612 mmHg 81%
    09:00 +10°C° 0 mm 2 mps 613 mmHg 76%
    10:00 +12°C° 0 mm 2 mps 614 mmHg 71%
    11:00 +13°C° 0 mm 1 mps 614 mmHg 66%
    12:00 +14°C° 0 mm 1 mps 615 mmHg 61%
    13:00 +14°C° 0.3 mm 2 mps 614 mmHg 63%
    14:00 +13°C° 0.3 mm 2 mps 614 mmHg 65%
    15:00 +13°C° 0.3 mm 2 mps 614 mmHg 67%
    16:00 +12°C° 0.3 mm 2 mps 613 mmHg 75%
    17:00 +9°C° 0.3 mm 2 mps 613 mmHg 82%
    18:00 +8°C° 0.3 mm 1 mps 613 mmHg 90%
    19:00 +8°C° 0 mm 1 mps 613 mmHg 90%
    20:00 +8°C° 0 mm 1 mps 613 mmHg 91%
    21:00 +7°C° 0 mm 1 mps 613 mmHg 91%
    22:00 +7°C° 0 mm 1 mps 613 mmHg 91%
    23:00 +7°C° 0 mm 1 mps 613 mmHg 90%

    20 October, Saturday

    Time Temperature Precipitation Wind Pressure Humidity
    00:00 +6°C° 0 mm 1 mps 613 mmHg 90%
    01:00 +6°C° 0 mm 1 mps 613 mmHg 89%
    02:00 +6°C° 0 mm 1 mps 613 mmHg 89%
    03:00 +6°C° 0 mm 1 mps 612 mmHg 89%
    04:00 +6°C° 0 mm 1 mps 613 mmHg 89%
    05:00 +6°C° 0 mm 1 mps 613 mmHg 88%
    06:00 +5°C° 0 mm 1 mps 613 mmHg 88%
    07:00 +7°C° 0 mm 1 mps 614 mmHg 82%
    08:00 +9°C° 0 mm 1 mps 615 mmHg 77%
    09:00 +11°C° 0 mm 1 mps 616 mmHg 71%
    10:00 +12°C° 0.1 mm 1 mps 616 mmHg 68%
    11:00 +13°C° 0.1 mm 1 mps 617 mmHg 65%
    12:00 +13°C° 0.1 mm 1 mps 617 mmHg 62%
    13:00 +13°C° 0.5 mm 1 mps 617 mmHg 65%
    14:00 +13°C° 0.5 mm 1 mps 616 mmHg 68%
    15:00 +12°C° 0.5 mm 1 mps 616 mmHg 70%
    16:00 +11°C° 0.2 mm 1 mps 615 mmHg 77%
    17:00 +9°C° 0.2 mm 1 mps 615 mmHg 84%
    18:00 +8°C° 0.2 mm 1 mps 615 mmHg 90%
    19:00 +7°C° 0 mm 1 mps 615 mmHg 91%
    20:00 +7°C° 0 mm 1 mps 614 mmHg 91%
    21:00 +6°C° 0 mm 2 mps 614 mmHg 91%
    22:00 +5°C° 0 mm 2 mps 614 mmHg 89%
    23:00 +6°C° 0 mm 1 mps 614 mmHg 87%
    Show more